Weather History for Dunkirk, NY

Change the Weather History Date:

Monday, June 17, 2013

  Actual Average Record
Temperature  
Mean Temperature 70 °F -  
Max Temperature 78 °F 76 °F 91 °F (1936)
Min Temperature 62 °F 57 °F 44 °F (1927)
Cooling Degree Days 5    
Growing Degree Days 20 (Base 50)    
Moisture  
Dew Point 56 °F    
Average Humidity 63    
Maximum Humidity 87    
Minimum Humidity 40    
Precipitation  
Precipitation 0.00 in - - ()
Sea Level Pressure  
Sea Level Pressure 29.90 in    
Wind  
Wind Speed 9 mph (SW)    
Max Wind Speed 16 mph    
Max Gust Speed 25 mph    
Visibility 10 miles    
Events      
Averages and records for this station are not official NWS values.
T = Trace of Precipitation, MM = Missing Value Source: NWS Daily Summary

Daily Weather History Graph

Daily Weather History Graph

Search for Another Location

Airport:

Trip Planner

Search our weather history database for the weather conditions in past years. The results will help you decide how hot, cold, wet, or windy it might be!

Date:

Astronomy

Jun. 17, 2013 Rise Set
Actual Time 5:39 AM EDT 8:56 PM EDT
Civil Twilight 5:04 AM EDT 9:31 PM EDT
Nautical Twilight 4:19 AM EDT 10:17 PM EDT
Astronomical Twilight 3:23 AM EDT 11:12 PM EDT
Moon 2:27 PM EDT (6/17) 1:21 AM EDT (6/17)
Length of Visible Light 16h 27m
Length of Day
15h 17m
First Quarter, 60% of the Moon is Illuminated
Jun 17
First Quarter
Jun 23
Full
Jun 30
Last Quarter
Jul 8
New
Jul 15
First Quarter

Hourly Weather History & Observations

Time (EDT) Temp. Dew Point Humidity Pressure Visibility Wind Dir Wind Speed Gust Speed Precip Events Conditions
12:53 AM 64.9 °F 60.1 °F 84% 29.87 in 10.0 mi SW 6.9 mph - N/A   Partly Cloudy
1:53 AM 64.0 °F 60.1 °F 87% 29.85 in 10.0 mi SSW 8.1 mph - N/A   Clear
2:53 AM 64.0 °F 60.1 °F 87% 29.85 in 10.0 mi SSW 6.9 mph - N/A   Clear
3:53 AM 64.9 °F 60.1 °F 84% 29.85 in 10.0 mi SSW 6.9 mph - N/A   Clear
4:53 AM 64.9 °F 60.1 °F 84% 29.87 in 10.0 mi SW 4.6 mph - N/A   Scattered Clouds
5:53 AM 63.0 °F 57.9 °F 84% 29.87 in 10.0 mi SSW 6.9 mph - N/A   Clear
6:53 AM 64.9 °F 57.9 °F 78% 29.89 in 10.0 mi SSW 6.9 mph - N/A   Clear
7:53 AM 69.1 °F 57.9 °F 68% 29.91 in 10.0 mi SW 10.4 mph - N/A   Clear
8:53 AM 71.1 °F 55.9 °F 59% 29.90 in 10.0 mi SW 13.8 mph 20.7 mph N/A   Clear
9:53 AM 73.0 °F 55.9 °F 55% 29.89 in 10.0 mi WSW 10.4 mph - N/A   Clear
10:53 AM 73.9 °F 55.0 °F 52% 29.91 in 10.0 mi SW 15.0 mph - N/A   Clear
11:53 AM 73.0 °F 55.9 °F 55% 29.93 in 10.0 mi West 16.1 mph 25.3 mph N/A   Mostly Cloudy
12:53 PM 73.9 °F 55.9 °F 53% 29.93 in 10.0 mi WSW 16.1 mph 20.7 mph N/A   Partly Cloudy
1:53 PM 77.0 °F 52.0 °F 42% 29.92 in 10.0 mi WSW 16.1 mph - N/A   Clear
2:53 PM 77.0 °F 53.1 °F 43% 29.92 in 10.0 mi West 11.5 mph 20.7 mph N/A   Clear
3:53 PM 78.1 °F 52.0 °F 40% 29.91 in 10.0 mi WSW 9.2 mph - N/A   Clear
4:53 PM 77.0 °F 51.1 °F 40% 29.91 in 10.0 mi WSW 12.7 mph - N/A   Scattered Clouds
5:53 PM 77.0 °F 51.1 °F 40% 29.90 in 10.0 mi WSW 10.4 mph 19.6 mph N/A   Clear
6:53 PM 75.9 °F 51.1 °F 42% 29.89 in 10.0 mi West 8.1 mph - N/A   Clear
7:53 PM 73.0 °F 50.0 °F 44% 29.89 in 10.0 mi WSW 4.6 mph - N/A   Clear
8:53 PM 66.9 °F 53.1 °F 61% 29.91 in 10.0 mi SW 4.6 mph - N/A   Partly Cloudy
9:53 PM 62.1 °F 55.0 °F 78% 29.92 in 10.0 mi SSW 3.5 mph - N/A   Clear
10:53 PM 64.0 °F 55.0 °F 73% 29.93 in 10.0 mi SSW 5.8 mph - N/A   Clear
11:53 PM 64.0 °F 57.0 °F 78% 29.94 in 10.0 mi Calm Calm - N/A   Mostly Cloudy